Location: Central Falls
(41.8900°N, 71.3929°W)
Time: 04:07:11
(UTC+00:00)

Tiros 1 despin weight - Pass Details

Date: 04 December 2023
Orbit: 581 x 624 km, 48.2° (Epoch: 01 March)

Event Time Altitude Azimuth Distance (km) Brightness Sun altitude
Rises 23:42:47 0° 252° (WSW) 2,798 ? -26.8°
Reaches altitude 10° 23:45:04 10° 255° (WSW) 1,896 ? -27.3°
Enters shadow 23:48:18 46° 278° (W) 785 ? -27.9°
Maximum altitude 23:49:23 64° 337° (NNW) 645 - -28.1°
Drops below altitude 10° 23:53:41 10° 60° (ENE) 1,897 - -28.9°
Sets 23:55:59 0° 63° (ENE) 2,800 - -29.3°
